Home   Weather   Liestal   Past weeks

Flag for Switzerland Past Weather in Liestal, Basel-Land, Switzerland — Yesterday and Last 2 Weeks

Now
43 °F

Light rain. Passing clouds.


Feels Like: 40 °F
Forecast: 39 / 47 °F
Wind: 5 mph from West

Location: Bale-Mulhouse

Current Time: Apr 26, 2017 at 9:47:54 pm

Latest Report: Apr 26, 2017 at 9:00 pm


Visibility: 3 mi

Pressure: 29.89 "Hg

Humidity: 93%

Dew Point: 41 °F

Location of LiestalLocation

Past Weather in Liestal — Graph

°F

Liestal Temperature Yesterday

Maximum temperature yesterday: 59 °F (at 10:30 am)
Minimum temperature yesterday: 39 °F (at 10:30 pm)
Average temperature yesterday: 51 °F

High & Low Weather Summary for the Past Weeks

 TemperatureHumidityPressure
High70 °F (Apr 24, 4:30 pm)100% (Apr 17, 4:30 am)30.54 "Hg (Apr 17, 4:30 am)
Low25 °F (Apr 20, 7:00 am)19% (Apr 21, 6:00 pm)29.74 "Hg (Apr 25, 5:30 pm)
Average48 °F66%30.14 "Hg
* Reported Apr 11 8:00 pm — Apr 26 8:00 pm, Liestal, Weather by CustomWeather, © 2017

Note: Actual official high and low records may vary slightly from our data, if they occured in-between our weather recording intervals... More about our weather records

Advertising

Liestal Weather History for the Previous 24 Hours

Scroll right to see more
 ConditionsComfort  
Time TempWeatherWind HumidityBarometerVisibility
8:00 pm
Wed, Apr 26
43 °FLight rain. Partly sunny.3 mph93%29.86 "HgN/A
7:30 pm43 °FLight rain. Partly sunny.3 mph93%29.86 "HgN/A
7:00 pm43 °FLight rain. Broken clouds.3 mph93%29.86 "HgN/A
6:30 pm43 °FBroken clouds.3 mph93%29.86 "HgN/A
6:00 pm45 °FBroken clouds.3 mph87%29.86 "Hg6 mi
5:30 pm45 °FBroken clouds.2 mph81%29.86 "Hg6 mi
5:00 pm43 °FDrizzle. Broken clouds.No wind93%29.86 "Hg6 mi
4:30 pm43 °FDrizzle. Broken clouds.2 mph93%29.86 "Hg6 mi
4:00 pm43 °FPartly sunny.3 mph87%29.86 "HgN/A
3:30 pm43 °FLight rain. Broken clouds.5 mph87%29.86 "HgN/A
3:00 pm43 °FLight rain. Broken clouds.7 mph87%29.86 "HgN/A
2:30 pm45 °FBroken clouds.1 mph81%29.86 "HgN/A
2:00 pm45 °FBroken clouds.2 mph81%29.86 "HgN/A
1:30 pm43 °FBroken clouds.3 mph87%29.86 "Hg6 mi
1:00 pm43 °FDrizzle. Partly sunny.1 mph87%29.86 "Hg5 mi
12:30 pm41 °FDrizzle. Partly sunny.2 mph87%29.86 "Hg5 mi
11:30 am41 °FDrizzle. Partly sunny.3 mph87%29.83 "Hg4 mi
11:00 am41 °FDrizzle. Partly sunny.3 mph93%29.83 "Hg4 mi
10:30 am39 °FDrizzle. Partly sunny.2 mph93%29.80 "Hg4 mi
10:00 am37 °FDrizzle. Partly sunny.2 mph100%29.83 "Hg4 mi
9:30 am37 °FDrizzle. Partly sunny.6 mph100%29.80 "Hg4 mi
9:00 am37 °FDrizzle. Fog.6 mph93%29.80 "Hg3 mi
8:30 am36 °FLight rain. Fog.2 mph100%29.80 "Hg2 mi
8:00 am34 °FLight rain. Fog.3 mph100%29.80 "Hg2 mi
7:30 am34 °FRain. Broken clouds.3 mph93%29.80 "Hg2 mi
7:00 am34 °FRain. Broken clouds.2 mph100%29.80 "Hg1 mi
6:30 am34 °FRain. Broken clouds.2 mph100%29.77 "Hg3 mi
6:00 am36 °FRain. Passing clouds.2 mph93%29.77 "Hg4 mi
5:30 am36 °FRain. Passing clouds.5 mph100%29.77 "Hg5 mi
5:00 am37 °FRain. Passing clouds.6 mph93%29.77 "Hg5 mi
4:24 am37 °FLight rain. Passing clouds.5 mph100%29.77 "Hg5 mi
4:00 am37 °FLight rain. Low clouds.8 mph100%29.77 "HgN/A
3:30 am37 °FLight rain. Low clouds.9 mph100%29.77 "HgN/A
3:00 am37 °FRain. Low clouds.8 mph93%29.77 "HgN/A
2:30 am37 °FLight rain. Low clouds.8 mph93%29.77 "HgN/A
2:00 am37 °FLight rain. Low clouds.9 mph100%29.77 "HgN/A
1:30 am37 °FRain. Low clouds.9 mph100%29.80 "Hg6 mi
1:00 am39 °FLight rain. Low clouds.12 mph93%29.80 "Hg5 mi
12:30 am39 °FRain. Low clouds.12 mph93%29.77 "Hg5 mi
12:00 am39 °FLight rain. Passing clouds.13 mph93%29.77 "Hg6 mi
11:30 pm
Tue, Apr 25
39 °FRain. Passing clouds.14 mph93%29.77 "Hg4 mi
11:00 pm39 °FLight rain. Passing clouds.13 mph93%29.77 "Hg4 mi
10:30 pm39 °FLight rain. Passing clouds.12 mph100%29.77 "Hg4 mi
10:00 pm41 °FLight rain. Passing clouds.10 mph93%29.77 "Hg5 mi
9:30 pm41 °FLight rain. Passing clouds.12 mph93%29.77 "Hg5 mi
9:00 pm41 °FLight rain. Passing clouds.12 mph93%29.77 "Hg6 mi
Weather by CustomWeather, © 2017

See weather overviewHow to use our weather pages